Regional Weather Roundup
Issued by NWS

Home | Current Version | Previous Version | Graphics & Text | Print | Product List | Glossary On
Versions: 1 2 3 4 5 6 7 8 9 10 11 12 13 14 15 16 17 18 19 20 21 22 23 24 25 26 27 28 29 30 31 32 33 34 35 36 37 38 39 40 41 42 43 44 45 46 47 48 49 50
000
ASUS43 KOAX 181902
RWRNE

WEATHER ROUNDUP FOR NEBRASKA
NATIONAL WEATHER SERVICE OMAHA NE
200 PM CDT WED APR 18 2018

NOTES: SATELLITE DATA IS BEING USED TO AUGMENT CLOUD COVER ABOVE
       12000 FEET.
       "FAIR" INDICATES FEW OR NO CLOUDS BELOW 12,000 FEET WITH NO
       SIGNIFICANT WEATHER AND/OR OBSTRUCTIONS TO VISIBILITY.


NEZ001>004-019>022-054>056-182000-
NEBRASKA PANHANDLE

CITY           SKY/WX    TMP DP  RH WIND       PRES   REMARKS
SCOTTSBLUFF    MOSUNNY   54  25  32 NW24G35   30.22F
ALLIANCE       MOSUNNY   54  27  35 NW28G33   30.17S
CHADRON        CLOUDY    53  27  36 NW8       30.18S
GORDON         CLOUDY    50  32  50 NW23G31   30.15S
KIMBALL        PTSUNNY   48  19  31 NW22G31   30.24S
SIDNEY         MOSUNNY   51  21  30 NW24G37   30.21F
$$

NEZ057>060-069>072-079>082-182000-
SOUTHWEST NEBRASKA

CITY           SKY/WX    TMP DP  RH WIND       PRES   REMARKS
NORTH PLATTE   CLOUDY    50  31  48 N24G38    30.16R
IMPERIAL       PTSUNNY   57  24  28 NW29G40   30.17S
LEXINGTON      PTSUNNY   49  33  52 N26G33    30.14S
MCCOOK         PTSUNNY   57  31  37 N25G40    30.14S
OGALLALA       MOSUNNY   56  29  35 N28G38    30.17R
$$

NEZ005>010-023>029-035>040-094-182000-
NORTH CENTRAL NEBRASKA

CITY           SKY/WX    TMP DP  RH WIND       PRES   REMARKS
VALENTINE      CLOUDY    41  35  79 NW13      30.17R
AINSWORTH      CLOUDY    36  33  90 N16       30.16S WCI  26
BROKEN BOW     CLOUDY    45  31  58 NW23G36   30.13R
O`NEILL        CLOUDY    36  33  87 N13       30.14R WCI  28
ORD            LGT RAIN  37  33  85 NW21G32   30.13R WCI  26
THEDFORD       CLOUDY    45  35  67 NW22G31   30.16S
$$

NEZ041-046>049-061>064-073>077-083>087-182000-
SOUTH CENTRAL NEBRASKA

CITY           SKY/WX    TMP DP  RH WIND       PRES   REMARKS
GRAND ISLAND   CLOUDY    41  31  67 NW23G32   30.12R
AURORA         CLOUDY    40  33  74 NW24G31   30.11R WCI  30
HASTINGS       CLOUDY    42  30  62 NW24G38   30.13S
HEBRON         CLOUDY    45  30  55 NW20G28   30.11R
HOLDREGE       CLOUDY    47  32  55 N17G31    30.13S
KEARNEY        PTSUNNY   45  30  55 N21G32    30.13S
YORK             N/A     41  34  75 N20G31    30.08R
$$

NEZ011>018-030>034-042>045-182000-
NORTHEAST NEBRASKA

CITY           SKY/WX    TMP DP  RH WIND       PRES   REMARKS
NORFOLK        PTSUNNY   36  31  82 N17G24    30.06R WCI  26
ALBION         CLOUDY    39  34  84 N22G30    30.10R WCI  28
BLAIR          FLURRIES  37  32  84 NW18      30.01R WCI  26
COLUMBUS       LGT RAIN  41  35  79 NW25      30.08
FREMONT        FLURRIES  39  35  84 NW23      30.05R WCI  28
TEKAMAH        CLOUDY    36  32  85 N16G29    30.04R WCI  26
WAYNE          FLURRIES  37  36  96 N18G25    30.06R WCI  27
$$

NEZ050>053-065>068-078-088>093-182000-
SOUTHEAST NEBRASKA

CITY           SKY/WX    TMP DP  RH WIND       PRES   REMARKS
LINCOLN        CLOUDY    42  29  59 NW26G35   30.07R
OMAHA EPPLEY   FLURRIES  37  31  78 N13       30.02R WCI  29
BEATRICE       CLOUDY    44  30  58 NW28      30.07S
FALLS CITY     CLOUDY    40  29  64 NW15G29   30.04R WCI  32
NEBRASKA CITY  CLOUDY    39  31  71 NW13G18   30.03R WCI  32
PLATTSMOUTH    CLOUDY    39  29  68 NW16      30.02R WCI  30
$$

NEZ044-045-051>053-067-182000-
OMAHA AREA

CITY           SKY/WX    TMP DP  RH WIND       PRES   REMARKS
OMAHA EPPLEY   FLURRIES  37  31  78 N13       30.02R WCI  29
BLAIR          FLURRIES  37  32  84 NW18      30.01R WCI  26
FREMONT        FLURRIES  39  35  84 NW23      30.05R WCI  28
MILLARD        CLOUDY    39  32  75 NW14      30.04R WCI  31
OFFUTT AFB     FLURRIES  38  29  70 NW17G24   30.02R WCI  29
PLATTSMOUTH    CLOUDY    39  29  68 NW16      30.02R WCI  30
WAHOO          DRIZZLE   39  32  75 NW20G29   30.04R WCI  30
$$




USA.gov is the U.S. government's official web portal to all federal, state and local government web resources and services.